Location: Boca de Tacagua
(10.5333°N, 66.9833°W)
Time: 02:31:30
(UTC+00:00)

X-37B - Pass Details

Date: 28 November 2022
Orbit: 277 x 277 km, 45.0° (Epoch: 01 November)

Event Time Altitude Azimuth Distance (km) Brightness Sun altitude
Rises 23:20:47 0° 205° (SSW) 1,899 4.8 -18.8°
Reaches altitude 10° 23:22:52 10° 190° (S) 1,089 3.2 -19.3°
Enters shadow 23:23:26 14° 181° (S) 902 2.7 -19.4°
